Location: Gorze? G�rny
(49.8500°N, 19.5000°E)
Time: 04:07:08
(UTC+00:00)

COSMOS 2487 - Pass Details

Date: 13 May 2021
Orbit: 431 x 433 km, 74.7° (Epoch: 23 June)

Event Time Altitude Azimuth Distance (km) Brightness Sun altitude
Rises 22:36:01 0° 341° (NNW) 2,418 7.4 -21.5°
Reaches altitude 10° 22:38:09 10° 348° (NNW) 1,545 6.2 -21.5°
Maximum altitude 22:41:26 47° 63° (ENE) 588 3.1 -21.5°
Enters shadow 22:41:31 47° 69° (ENE) 589 3.0 -21.5°
